Regional Weather Roundup
Issued by NWS

Home | Current Version | Previous Version | Text Only | Print | Product List | Glossary Off
Versions: 1 2 3 4 5 6 7 8 9 10 11 12 13 14 15 16 17 18 19 20 21 22 23 24 25 26 27 28 29 30 31 32 33 34 35 36 37 38 39 40 41 42 43 44 45 46 47 48 49 50

000
ASUS43 KOAX 241602
RWRNE

WEATHER ROUNDUP FOR NEBRASKA
NATIONAL WEATHER SERVICE OMAHA NE
1100 AM CDT FRI OCT 24 2014

NOTES: SATELLITE DATA IS BEING USED TO AUGMENT CLOUD COVER ABOVE
       12000 FEET.
       "FAIR" INDICATES FEW OR NO CLOUDS BELOW 12,000 FEET WITH NO
       SIGNIFICANT WEATHER AND/OR OBSTRUCTIONS TO VISIBILITY.

  * THESE STATIONS DO NOT REPORT WEATHER SUCH AS RAIN...SNOW OR FOG.

NEZ001>004-019>022-054>056-241700-
NEBRASKA PANHANDLE

CITY           SKY/WX    TMP DP  RH WIND       PRES   REMARKS
SCOTTSBLUFF    PTSUNNY   64  32  30 NW12      30.09R
ALLIANCE       PTSUNNY   63  39  41 W14       30.06R
CHADRON        PTSUNNY   63  36  36 W8        30.04R
KIMBALL        CLOUDY    64  32  30 W10       30.13R
SIDNEY         CLOUDY    64  40  41 NW6       30.12R
$$

NEZ057>060-069>072-079>082-241700-
SOUTHWEST NEBRASKA

CITY           SKY/WX    TMP DP  RH WIND       PRES   REMARKS
NORTH PLATTE   CLOUDY    56  44  64 NW9       30.03R
IMPERIAL       CLOUDY    62  38  40 W6        30.07R
LEXINGTON      CLOUDY    57  49  73 NW8       30.01R
MCCOOK         PTSUNNY   62  45  53 W12       30.04R
OGALLALA       CLOUDY    59  42  53 W8        30.06S
$$

NEZ005>010-023>029-035>040-094-241700-
NORTH CENTRAL NEBRASKA

CITY           SKY/WX    TMP DP  RH WIND       PRES   REMARKS
VALENTINE      CLOUDY    57  40  52 W5        29.97R
AINSWORTH      CLOUDY    58  39  49 W5        29.97S
BROKEN BOW     CLOUDY    65  44  46 W10       29.98R
O`NEILL        CLOUDY    58  48  68 W3        29.96R
ORD            CLOUDY    54  49  83 NW5       29.96R
THEDFORD       CLOUDY    64  41  42 W10       30.01R
$$

NEZ041-046>049-061>064-073>077-083>087-241700-
SOUTH CENTRAL NEBRASKA

CITY           SKY/WX    TMP DP  RH WIND       PRES   REMARKS
GRAND ISLAND   CLOUDY    61  52  72 SW8       29.97R
AURORA         CLOUDY    60  56  87 W3        29.96S
HASTINGS       CLOUDY    61  54  77 W9        29.97R
HEBRON         CLOUDY    63  59  87 SW7       29.98S FOG
HOLDREGE       CLOUDY    59  51  74 CALM      30.00R
KEARNEY *      CLOUDY    61  50  67 SW7       29.99R
YORK           CLOUDY    61  57  88 W8        29.97R
$$

NEZ011>018-030>034-042>045-241700-
NORTHEAST NEBRASKA

CITY           SKY/WX    TMP DP  RH WIND       PRES   REMARKS
NORFOLK        CLOUDY    61  53  75 W5        29.93S
ALBION         CLOUDY    58  53  84 NW5       29.95R
BLAIR          CLOUDY    65  60  82 SW10      29.94R
COLUMBUS *     CLOUDY    61  54  77 SW7       29.96R
FREMONT        CLOUDY    65  58  77 SW6       29.94S
TEKAMAH        CLOUDY    66  59  78 SW9       29.93R
WAYNE          CLOUDY    62  54  74 W5        29.92S
$$

NEZ050>053-065>068-078-088>093-241700-
SOUTHEAST NEBRASKA

CITY           SKY/WX    TMP DP  RH WIND       PRES   REMARKS
LINCOLN        CLOUDY    65  59  81 SW13      29.96S HAZE
OMAHA EPPLEY   CLOUDY    64  59  83 S8        29.95R
BEATRICE       CLOUDY    63  60  92 SW13      29.97F FOG
FALLS CITY     CLOUDY    65  60  84 S10       29.99S
NEBRASKA CITY  CLOUDY    63  62  98 SW14      29.96F
PLATTSMOUTH    CLOUDY    62  59  89 S9        29.96R FOG
$$

NEZ044-045-051>053-067-241700-
OMAHA AREA

CITY           SKY/WX    TMP DP  RH WIND       PRES   REMARKS
OMAHA EPPLEY   CLOUDY    64  59  83 S8        29.95R
BLAIR          CLOUDY    65  60  82 SW10      29.94R
FREMONT        CLOUDY    65  58  77 SW6       29.94S
OFFUTT AFB     CLOUDY    64  64 100 S7        29.94S
PLATTSMOUTH    CLOUDY    62  59  89 S9        29.96R FOG
WAHOO          FAIR      66  57  73 SW8       29.94S
$$



USA.gov is the U.S. government's official web portal to all federal, state and local government web resources and services.